Probability
0 0 0 0 0 0 0 0 0 0 0 0 0 0 0 0 0 0 0 0 0 0 0 0 0 0 0 0 0 0 0 0 0 0 0 0 0 0 0 0 0 0 0 0
0 0 0 0 0 0 0 0 0 0 0 0 0 0 0 0 0 0 0 0 0 0 0 0 0 0 0 0 0 0 0 0 0 0 0 0 0 0 0 0 0 0 0 0
0 0 0 0 0 0 0 0 0 0 0 0 0 0 0 0 0 0 0 0 0 0 0 0 0 0 0 0 0 0 0 0 0 0 0 0 0 0 0 0 0 0 0 0
0 0 0 0 0 0 0 0 0 0 0 0 0 0 0 0 0 0 0 0 0 0 0 0 0 0 0 0 0 0 0 0 0 0 0 0 0 0 0 0 0 0 0 0
0 0 0 0 0 0 0 0 0 0 0 0 0 0 0 0 0 0 0 0 0 0 0 0 0 0 0 0 0 0 0 0 0 0 0 0 0 0 0 0 0 0 0 0
0 0 0 0 0 0 0 0 0 0 0 0 0 0 0 0 0 0 0 0 0 0 0 0 0 0 0 0 0 0 0 0 0 0 0 0 0 0 0 0 0 0 0 0
0 0 0 0 0 0 0 0 0 0 0 0 0 0 0 0 0 0 0 0 0 0 0 0 0 0 0 0 0 0 0 0 0 0 0 0 0 0 0 0 0 0 0 0
0 0 0 0 0 0 0 0 0 0 0 0 0 0 0 0 0 0 0 0 0 0 0 0 0 0 0 0 0 0 0 0 0 0 0 0 0 0 0 0 0 0 0 0
0 0 0 0 0 0 0 0 0 0 0 0 0 0 0 0 0 0 0 0 0 0 0 0 0 0 0 0 0 0 0 0 0 0 0 0 0 0 0 0 0 0 0 0
0 0 0 0 0 0 0 0 0 0 0 0 0 0 0 0 0 0 0 0 0 0 0 0 0 0 0 0 0 0 0 0 0 0 0 0 0 0 0 0 0 0 0 0
0 0 0 0 0 0 0 0 0 0 0 0 0 0 0 0 0 0 0 0 0 0 0 0 0 0 0 0 0 0 0 0 0 0 0 0 0 0 0 0 0 0 0 0
0 0 0 0 0 0 0 0 0 0 0 0 0 0 0 0 0 0 0 0 0 0 0 0 0 0 0 0 0 0 0 0 0 0 0 0 0 0 0 0 0 0 0 0
0 0 0 0 0 0 0 0 0 0 0 0 0 0 0 0 0 0 0 0 0 0 0 0 0 0 0 0 0 0 0 0 0 0 0 0 0 0 0 0 0 0 0 0
0 0 0 0 0 0 0 0 0 0 0 0 0 0 0 0 0 0 0 0 0 0 0 0 0 0 0 0 0 0 0 0 0 0 0 0 0 0 0 0 0 0 0 0
0 0 0 0 0 0 0 0 0 0 0 0 0 0 0 0 0 0 0 0 0 0 0 0 0 0 0 0 0 0 0 0 0 0 0 0 0 0 0 0 0 0 0 0
0 0 0 0 0 0 0 0 0 0 0 0 0 0 0 0 0 0 0 0 0 0 0 0 0 0 0 0 0 0 0 0 0 0 0 0 0 0 0 0 0 0 0 0
0 0 0 0 0 0 0 0 0 0 0 0 0 0 0 0 0 0 0 0 0 0 0 0 0 0 0 0 0 0 0 0 0 0 0 0 0 0 0 0 0 0 0 0
0 0 0 0 0 0 0 0 0 0 0 0 0 0 0 0 0 0 0 0 0 0 0 0 0 0 0 0 0 0 0 0 0 0 0 0 0 0 0 0 0 0 0 0
0 0 0 0 0 0 0 0 0 0 0 0 0 0 0 0 0 0 0 0 0 0 0 0 0 0 0 0 0 0 0 0 0 0 0 0 0 0 0 0 0 0 0 0
0 0 0 0 0 0 0 0 0 0 0 0 0 0 0 0 0 0 0 0 0 0 0 0 0 0 0 0 0 0 0 0 0 0 0 0 0 0 0 0 0 0 0 0
0 0 0 0 0 0 0 0 0 0 0 0 0 0 0 0 0 0 0 0 0 0 0 0 0 0 0 0 0 0 0 0 0 0 0 0 0 0 0 0 0 0 0 0
0 0 0 0 0 0 0 0 0 0 0 0 0 0 0 0 0 0 0 0 0 0 0 0 0 0 0 0 0 0 0 0 0 0 0 0 0 0 0 0 0 0 0 0
0 0 0 0 0 0 0 0 0 0 0 0 0 0 0 0 0 0 0 0 0 0 0 0 0 0 0 0 0 0 0 0 0 0 0 0 0 0 0 0 0 0 0 0
0 0 0 0 0 0 0 0 0 0 0 0 0 0 0 0 0 0 0 0 0 0 0 0 0 0 0 0 0 0 0 0 0 0 0 0 0 0 0 0 0 0 0 0
0 0 0 0 0 0 0 0 0 0 0 0 0 0 0 0 0 0 0 0 0 0 0 0 0 0 0 0 0 0 0 0 0 0 0 0 0 0 0 0 0 0 0 0
0 0 0 0 0 0 0 0 0 0 0 0 0 0 0 0 0 0 0 0 0 0 0 0 0 0 0 0 0 0 0 0 0 0 0 0 0 0 0 0 0 0 0 0
0 0 0 0 0 0 0 0 0 0 0 0 0 0 0 0 0 0 0 0 0 0 0 0 0 0 0 0 0 0 0 0 0 0 0 0 0 0 0 0 0 0 0 0
Wind_Speed
10 10 9 10 11 12 13 14 14 15 15 10 5 4 3 3 2 1 1 2 2 3 3 3 3 4 5 7 8 10 11 12 13 13 13 14 14 14 14 13 13 13 13 13
9 8 9 11 12 13 15 17 17 15 14 8 5 4 3 2 1 1 1 2 2 2 2 3 4 4 5 6 7 9 10 11 11 11 12 13 13 12 12 12 12 12 13 13
7 7 7 9 9 11 12 13 15 15 10 6 5 5 4 3 2 2 1 1 2 2 3 3 3 4 5 6 7 8 9 9 10 11 12 12 11 12 12 13 12 12 12 12
6 5 8 4 3 8 10 9 8 8 6 6 7 6 5 3 4 4 3 2 2 2 2 3 3 3 4 5 7 8 8 9 10 10 11 11 12 12 12 11 11 11 11 11
4 6 8 5 3 5 8 7 7 8 7 6 7 5 4 4 6 6 6 5 4 3 3 2 3 3 4 5 6 7 8 9 9 10 11 11 12 12 10 10 10 9 10 10
5 6 6 3 5 6 6 5 3 4 5 6 5 6 6 7 8 8 7 5 4 3 2 3 3 4 5 6 7 8 8 8 9 9 10 11 11 10 9 9 9 8 8 8
8 7 6 5 7 2 4 2 4 5 5 5 6 8 9 9 8 8 7 7 5 4 3 3 4 5 5 6 7 7 7 7 8 9 9 10 9 9 9 9 9 8 8 7
6 7 6 3 2 1 3 5 6 7 7 8 9 11 10 10 9 8 8 7 5 4 3 2 4 5 5 6 5 6 7 8 8 8 8 8 10 9 9 10 10 9 8 7
6 6 4 3 4 5 5 7 8 9 10 10 11 12 12 11 11 10 8 7 6 5 4 3 4 5 6 5 5 7 8 8 8 8 8 8 10 10 9 9 8 8 7 7
8 9 9 9 9 8 9 10 12 12 12 12 13 13 13 11 10 9 8 7 5 5 5 4 4 4 4 5 6 8 9 8 8 8 8 8 7 7 8 8 8 8 7 7
12 12 12 10 9 11 13 14 14 13 12 12 13 13 13 11 10 9 8 7 6 6 5 5 4 4 4 6 7 8 8 8 8 8 8 7 6 5 6 6 7 8 7 7
11 10 11 14 14 15 16 16 15 15 14 13 12 13 13 11 10 9 8 7 6 6 5 5 4 4 5 6 7 9 8 8 7 7 7 7 7 6 6 6 8 8 8 8
15 15 16 17 17 16 16 16 16 15 15 14 13 11 11 11 9 8 8 8 7 6 5 5 5 5 5 6 7 8 9 8 7 7 7 7 8 8 8 7 9 9 10 11
14 14 16 15 15 16 16 16 15 15 13 12 12 10 9 9 8 8 8 7 5 5 4 5 5 5 5 6 6 7 8 8 8 7 7 7 7 7 8 9 8 6 7 10
13 13 15 16 16 15 14 14 14 13 12 11 10 9 9 9 8 7 6 5 4 4 4 4 4 4 4 6 6 7 7 7 7 7 7 7 7 7 7 8 7 7 6 7
13 13 14 15 16 15 15 14 14 14 12 11 10 9 9 8 7 6 5 5 5 5 5 4 4 4 5 6 6 5 6 8 8 7 7 7 7 7 7 7 7 7 7 7
13 13 13 14 15 15 15 14 14 13 12 12 11 9 8 6 5 4 4 3 3 3 4 4 4 4 5 6 6 5 6 7 10 7 7 7 7 7 7 7 7 6 6 6
12 14 14 15 14 15 15 14 13 13 12 11 9 8 7 7 6 5 3 3 3 2 2 4 4 5 5 6 6 6 6 6 6 7 7 7 7 7 7 7 7 7 6 7
12 13 14 14 14 13 14 13 12 11 10 8 7 7 6 6 5 4 4 4 5 4 3 4 6 6 5 6 6 6 7 7 7 7 7 9 8 7 7 7 7 7 7 6
13 13 13 14 13 12 12 11 10 9 7 6 6 5 4 4 4 4 4 3 2 3 4 5 5 5 6 6 7 6 7 8 8 8 7 7 7 7 7 7 7 7 6 6
14 13 13 12 12 11 10 9 8 7 5 5 5 4 3 3 4 4 5 3 2 4 5 6 5 5 5 7 8 7 7 8 8 7 7 7 7 7 7 7 6 6 6 5
12 11 11 10 9 8 7 5 5 4 3 3 3 3 4 4 4 3 3 3 4 6 4 4 4 7 9 9 6 7 7 7 7 7 7 7 7 7 7 7 6 6 5 5
11 10 9 8 7 6 5 4 3 2 2 2 3 4 4 4 3 4 4 3 4 6 5 5 8 12 12 8 6 7 8 7 7 6 6 6 6 6 7 7 6 6 5 5
10 9 7 6 5 4 3 3 2 1 1 1 1 2 3 4 3 3 4 7 8 8 6 9 12 13 11 6 7 7 7 7 6 6 6 6 6 6 6 6 6 5 5 5
9 8 6 5 4 3 2 2 3 3 3 3 4 4 3 3 4 5 6 7 10 10 8 10 13 12 8 7 7 7 6 6 7 7 6 6 6 6 6 5 5 5 4 4
7 6 5 4 3 2 2 1 2 2 3 4 4 4 4 5 6 6 6 8 10 10 8 6 7 9 7 7 7 7 7 7 7 6 6 6 6 6 5 5 6 4 4 4
6 5 4 4 4 3 2 2 3 3 3 4 5 5 5 6 6 7 8 7 7 7 7 7 7 7 7 7 7 7 7 6 6 6 6 5 5 5 5 5 4 4 3 3
Wind_Direction
271 272 257 256 253 239 229 231 230 229 231 232 254 262 257 254 243 204 189 182 177 183 180 177 174 174 180 182 181 180 183 189 192 192 192 192 193 192 191 191 191 190 191 193
267 263 258 258 251 241 232 232 236 242 241 245 268 285 278 269 272 257 217 206 202 205 199 195 187 178 176 178 178 179 182 185 184 185 185 187 187 185 185 185 186 187 190 190
269 279 265 247 238 233 225 228 233 237 241 251 258 264 272 285 292 295 288 252 229 227 223 213 199 183 178 176 172 176 178 177 178 181 182 182 178 180 181 182 182 184 186 186
274 271 237 252 249 239 233 235 244 253 271 264 263 262 263 272 293 304 316 316 287 261 247 233 200 183 167 163 168 172 173 174 175 176 177 175 176 178 178 178 180 181 182 183
255 258 263 270 277 256 237 241 254 256 268 285 291 270 265 306 307 296 294 297 291 273 247 224 197 174 163 161 166 174 177 176 175 174 172 173 175 176 174 173 174 175 175 177
246 253 251 305 323 300 242 242 301 281 281 290 292 248 259 308 307 305 307 306 304 294 257 210 186 169 170 171 175 184 183 178 174 173 173 173 173 170 167 166 166 162 164 173
238 251 263 313 325 305 213 265 319 297 289 292 269 267 291 301 296 295 299 304 303 288 256 218 185 175 180 180 190 186 175 169 170 172 172 169 166 165 160 156 154 155 155 160
228 237 248 351 345 283 294 313 315 314 306 296 286 288 296 295 292 292 294 297 297 287 271 227 193 186 187 192 184 169 165 164 166 167 162 162 161 159 158 155 154 155 154 153
239 253 290 301 289 288 302 304 306 306 304 300 293 289 290 288 287 285 285 286 285 279 270 237 210 198 194 184 167 164 163 163 161 160 160 163 162 159 158 160 159 160 160 159
260 262 278 283 289 292 300 303 302 299 297 294 290 290 288 285 285 285 284 282 278 271 258 242 225 212 195 172 167 164 163 160 159 157 156 159 159 161 162 165 163 162 164 162
261 276 288 279 284 296 303 304 304 301 296 291 288 286 284 283 280 280 281 279 269 257 249 237 221 203 182 171 166 163 160 160 159 157 154 152 150 152 163 167 170 165 167 163
262 278 279 284 293 298 299 299 300 300 298 295 286 282 281 278 276 275 273 272 263 252 241 227 207 194 183 175 169 163 160 162 161 157 152 149 141 120 89 115 124 131 139 146
266 277 279 282 287 290 292 294 295 293 291 291 288 281 278 276 274 272 269 264 254 242 228 211 195 189 182 176 173 170 165 163 159 157 156 153 150 146 136 110 106 119 130 134
269 274 276 279 283 289 290 290 290 289 286 284 284 282 276 274 271 266 263 260 251 235 215 199 186 185 181 175 168 162 159 156 157 157 156 156 155 153 150 147 143 132 127 134
270 270 272 281 284 286 288 290 290 288 288 287 282 276 272 269 265 263 260 247 228 214 202 187 176 177 174 167 160 156 156 157 154 152 151 150 148 147 146 145 142 137 132 132
284 282 279 279 281 284 287 287 286 286 286 284 282 278 274 270 265 260 247 224 205 200 196 183 176 173 167 158 151 147 147 149 150 148 147 146 146 147 147 148 145 146 149 147
287 286 287 288 287 287 285 283 282 282 281 277 277 277 269 256 248 242 234 224 204 196 191 178 169 162 160 157 150 143 142 143 142 143 146 147 147 148 148 148 147 147 147 150
281 282 284 284 285 286 286 285 282 280 275 272 273 265 250 237 232 226 210 183 157 148 163 166 160 155 155 153 144 140 142 146 147 145 142 143 143 143 143 142 143 143 140 141
296 291 289 286 283 281 281 282 282 279 274 268 259 253 246 236 223 208 189 176 168 164 174 157 148 148 148 143 138 136 138 138 135 134 134 137 136 138 141 142 142 144 143 145
301 297 293 289 285 280 279 281 281 276 269 258 248 235 224 219 202 188 173 167 190 168 155 151 144 140 138 136 134 134 136 137 136 135 134 137 137 139 139 139 141 142 144 146
305 300 294 289 287 283 280 280 278 274 267 248 233 216 200 191 180 173 159 147 140 137 139 140 137 133 132 133 129 129 130 131 133 135 136 136 137 137 138 140 141 141 142 143
308 304 299 292 287 288 288 285 278 273 263 239 210 180 164 161 154 141 128 140 141 136 134 131 127 131 133 129 123 123 124 126 128 132 135 137 139 140 140 140 139 139 140 142
310 306 302 298 295 295 300 299 289 272 255 219 187 176 166 158 154 142 133 134 136 129 122 122 128 129 126 117 115 118 122 125 127 130 131 131 133 136 137 137 137 139 141 142
316 316 315 314 312 315 324 334 352 14 53 88 108 130 136 129 106 89 105 119 118 114 107 116 122 121 114 108 111 114 116 119 121 122 122 122 125 128 131 134 135 134 137 142
319 321 326 334 337 339 353 22 51 68 74 80 82 80 83 95 107 108 106 109 110 105 102 107 109 106 101 101 106 110 113 116 120 121 121 125 126 127 127 130 132 135 140 146
325 329 333 337 339 346 358 44 68 73 84 92 85 79 81 87 96 100 100 100 98 96 95 95 96 95 95 98 100 102 104 109 108 108 116 119 121 122 124 126 129 134 139 143
335 339 346 356 4 10 26 56 73 77 83 94 93 86 88 92 95 97 97 95 93 90 89 88 88 89 91 93 95 95 95 97 99 104 108 111 114 117 122 126 127 129 134 142